Regional Weather Roundup
Issued by NWS Northern Indiana

Home | Current Version | Previous Version | Graphics & Text | Print | Product List | Glossary On
Versions: 1 2 3 4 5 6 7 8 9 10 11 12 13 14 15 16 17 18 19 20 21 22 23 24 25 26 27 28 29 30 31 32 33 34 35 36 37 38 39 40 41 42 43 44 45 46 47 48 49 50
000
ASUS43 KIWX 221210
RWRIWX

KIWX WEATHER ROUNDUP
NATIONAL WEATHER SERVICE NORTHERN INDIANA
800 AM EDT FRI AUG 22 2014

NOTE: "FAIR" INDICATES FEW OR NO CLOUDS BELOW 12,000 FEET WITH NO
SIGNIFICANT WEATHER AND/OR OBSTRUCTIONS TO VISIBILITY.

* THESE STATIONS ARE NOT UNDER NWS QUALITY CONTROL. THEY ALSO MAY NOT
  REPORT WEATHER SUCH AS PRECIPITATION OR FOG.

INZ001>027-221300-
NORTHERN INDIANA

CITY           SKY/WX    TMP DP  RH WIND       PRES   REMARKS
GARY*          MOCLDY    73  72  94 S5        29.95R
VALPARAISO     CLOUDY    71  69  93 S3        29.96R
6HR MIN TEMP:  70; 6HR MAX TEMP:  72; 6HR PCP:  3.11;

MICHIGAN CITY* MOCLDY    70  70 100 CALM      29.95S
LAPORTE*       CLOUDY   N/A N/A N/A CALM      29.96S HAZE
                                      6HR PCP:  0.11;

KNOX*          CLOUDY    69  67  93 S3        29.96R
6HR MIN TEMP:  41; 6HR MAX TEMP:  86;

SOUTH BEND     CLOUDY    72  69  90 CALM      29.97R
6HR MIN TEMP:  72; 6HR MAX TEMP:  73; 6HR PCP:  0.01;

ELKHART*       PTSUNNY   72  72 100 CALM      29.97R FOG
GOSHEN         CLOUDY    72  70  93 S5        29.97R
6HR MIN TEMP:  71; 6HR MAX TEMP:  73; 6HR PCP:  0.05;

MONTICELLO*    HVY RAIN  71  71  99 SE6       29.96F
6HR MIN TEMP:  70; 6HR MAX TEMP:  74; 6HR PCP:  2.90;

LOGANSPORT*    HVY RAIN  70  68  94 S10       29.99F
ROCHESTER*     CLOUDY    72  72 100 S5        30.00R
ANGOLA*        CLOUDY    70  63  78 CALM      29.98R
FORT WAYNE     LGT RAIN  70  69  97 S7        29.98S
6HR MIN TEMP:  68; 6HR MAX TEMP:  71; 6HR PCP:  1.96;

HUNTINGTON*    DRIZZLE   69  69  98 S6        29.98S
6HR MIN TEMP:  68; 6HR MAX TEMP:  73; 6HR PCP:  1.81;

PERU/GRISSOM   LGT RAIN  70  70 100 S7        30.01F
6HR MIN TEMP:  70; 6HR MAX TEMP:  72; 6HR PCP:  0.82;

MARION*        LGT RAIN  69  68  96 S5        30.02R
6HR MIN TEMP:  40; 6HR MAX TEMP:  87; 6HR PCP:  0.45;


$$
INZ028>050-221300-
CENTRAL INDIANA

CITY           SKY/WX    TMP DP  RH WIND       PRES   REMARKS
LAFAYETTE      LGT RAIN  71  70  96 CALM      29.99R
6HR MIN TEMP:  70; 6HR MAX TEMP:  76; 6HR PCP:  0.44;

KOKOMO*        CLOUDY    72  70  94 N6        30.02R THUNDER
6HR MIN TEMP:  70; 6HR MAX TEMP:  72; 6HR PCP:  0.32;

MUNCIE*        TSTM      70  68  93 S3        30.03R FOG
6HR MIN TEMP:  70; 6HR MAX TEMP:  72; 6HR PCP:  0.96;

INDIANAPOLIS   CLOUDY    75  72  90 NW10      29.99R
6HR MIN TEMP:  73; 6HR MAX TEMP:  76; 6HR PCP: TRACE;


$$
MIZ043>046-050>051-056>058-064>065-071>073-077>080-221300-
SOUTHWEST LOWER MICHIGAN

CITY           SKY/WX    TMP DP  RH WIND       PRES   REMARKS
BATTLE CREEK   CLOUDY    70  68  93 E5        29.98S FOG
6HR MIN TEMP:  70; 6HR MAX TEMP:  73;

BENTON HARBOR  PTCLDY    69  68  96 S3        29.95R FOG
6HR MIN TEMP:  67; 6HR MAX TEMP:  70;

COLDWATER*     PTSUNNY   70  69  97 CALM      29.98R FOG
6HR MIN TEMP:  68; 6HR MAX TEMP:  70;

HILLSDALE*     CLOUDY    70  70 100 CALM      29.99S FOG
6HR MIN TEMP:  68; 6HR MAX TEMP:  71;

HOLLAND        FOG       71  69  93 E6        29.95F VSB<1/4
6HR MIN TEMP:  69; 6HR MAX TEMP:  73;

GRAND RAPIDS   FOG       70  70 100 E6        29.96S VSB 1/8
6HR MIN TEMP:  69; 6HR MAX TEMP:  71;

KALAMAZOO      FOG       70  69  97 CALM      29.97R VSB 1
6HR MIN TEMP:  69; 6HR MAX TEMP:  73;

STURGIS*       CLOUDY    70  70 100 S5        29.97S FOG
THREE RIVERS*  CLOUDY    71  70  98 CALM      29.97S FOG

$$
OHZ001>008-015>018-024>025-221300-
NORTHWEST OHIO

CITY           SKY/WX    TMP DP  RH WIND       PRES   REMARKS
WAUSEON*       FOG       70  70 100 CALM      29.97F VSB 1
DEFIANCE       CLOUDY    71  68  90 CALM      29.98R
6HR MIN TEMP:  68; 6HR MAX TEMP:  71;

FINDLAY        CLOUDY    71  69  93 S6        29.99R FOG
6HR MIN TEMP:  71; 6HR MAX TEMP:  73;

TOLEDO EXPRESS PTSUNNY   70  69  97 CALM      29.97F FOG
6HR MIN TEMP:  68; 6HR MAX TEMP:  70; 6HR PCP:  0.06;

TOLEDO METCALF PTSUNNY   73  68  84 CALM      29.99R
6HR MIN TEMP:  70; 6HR MAX TEMP:  73;

LIMA           CLOUDY    72  69  90 SW3       30.00S
6HR MIN TEMP:  69; 6HR MAX TEMP:  72;


$$
&&


USA.gov is the U.S. government's official web portal to all federal, state and local government web resources and services.